Flag for Egypt Weather past 2 weeks in Port Said, Egypt

Now
79 °F

Clear.


Feels Like: 82 °F
Forecast: 77 / 85 °F
Wind: 9 mph from North

Location: Port Said Airport

Current Time: Sep 21, 2014 at 5:04:25 AM

Latest Report: Sep 21, 2014 at 4:00 AM


Visibility: 10 mi

Pressure: 29.92 "Hg

Humidity: 79%

Dew point: 72 °F

Location of Port SaidLocation

Historic Weather in Port Said — Graph

°F

Port Said temperature yesterday

Maximum temperature yesterday: 84 °F (at 1:00 AM)
Minimum temperature yesterday: 77 °F (at 6:00 AM)
Average temperature yesterday: 80 °F

Past Weeks' High & Low Weather Summary

 TemperatureHumidityPressure
High91 °F (Sep 17, 1:00 PM)94% (Sep 12, 4:00 AM)30.01 "Hg (Sep 12, 4:00 AM)
Low73 °F (Sep 19, 9:00 AM)45% (Sep 11, 9:00 AM)29.74 "Hg (Sep 6, 3:00 AM)
Average81 °F70%29.89 "Hg
* Reported Sep 6 3:00 AM — Sep 21 3:00 AM, Port Said, Weather by CustomWeather, © 2014

Note: Actual official high and low records may vary slightly from our data, if they occured in-between our weather recording intervals... More about our weather records

Advertising

Port Said weather history for previous 24 hours

 ConditionsComfort  
Time TempWeatherWind HumidityBarometerVisibility
3:00 AM
Sep 21
79 °FClear.9 mph79%29.92 "Hg10 mi
2:00 AM79 °FPassing clouds.10 mph79%29.92 "HgN/A
1:00 AM79 °FPassing clouds.10 mph79%29.92 "HgN/A
12:00 AM79 °FPassing clouds.12 mph79%29.92 "HgN/A
11:00 PM
Sep 20
79 °FPassing clouds.14 mph79%29.95 "HgN/A
10:00 PM79 °FPassing clouds.13 mph79%29.92 "HgN/A
9:00 PM79 °FPassing clouds.13 mph79%29.92 "HgN/A
8:00 PM79 °FPassing clouds.13 mph79%29.92 "HgN/A
4:00 PM82 °FScattered clouds.13 mph66%29.92 "HgN/A
3:00 PM82 °FScattered clouds.14 mph66%29.92 "HgN/A
2:00 PM82 °FScattered clouds.12 mph66%29.95 "HgN/A
1:00 PM82 °FScattered clouds.10 mph62%29.95 "HgN/A
12:00 PM82 °FScattered clouds.8 mph62%29.95 "HgN/A
11:00 AM82 °FScattered clouds.7 mph62%29.95 "HgN/A
10:00 AM81 °FScattered clouds.6 mph70%29.95 "HgN/A
9:00 AM79 °FScattered clouds.5 mph74%29.95 "HgN/A
8:00 AM77 °FScattered clouds.8 mph74%29.95 "HgN/A
7:00 AM77 °FScattered clouds.9 mph74%29.95 "HgN/A
6:00 AM77 °FPassing clouds.12 mph74%29.92 "HgN/A
5:00 AM79 °FPassing clouds.13 mph65%29.92 "HgN/A
Weather by CustomWeather, © 2014

See weather overviewHow to use our weather pages